Blair, NE

1:47 AM CDT on June 25, 2017 (GMT -0500)
Blair Municipal

Weather History for KBTA - June, 2014

Change the Weather History Date:

Sunday, June 1, 2014

  Actual Average (KOMA) Record (KOMA)
Temperature  
Mean Temperature 76 °F -  
Max Temperature 88 °F 78 °F 95 °F (1934)
Min Temperature 63 °F 53 °F 42 °F (1983)
Cooling Degree Days 10    
Growing Degree Days 26 (Base 50)    
Moisture  
Dew Point 64 °F    
Average Humidity 70    
Maximum Humidity 94    
Minimum Humidity 43    
Precipitation  
Precipitation 0.31 in - - ()
Sea Level Pressure  
Sea Level Pressure 29.84 in    
Wind  
Wind Speed 14 mph (South)    
Max Wind Speed 39 mph    
Max Gust Speed 54 mph    
Visibility 10 miles    
Events Rain , Thunderstorm    
Averages and records for this station are not official NWS values.
T = Trace of Precipitation, MM = Missing Value Source: NWS Daily Summary

Daily Weather History Graph

Daily Weather History Graph

Search for Another Location

Airport or City:

Trip Planner

Search our weather history database for the weather conditions in past years. The results will help you decide how hot, cold, wet, or windy it might be!

Date:

Astronomy

Jun. 01, 2014 Rise Set
Actual Time 5:53 AM CDT 8:51 PM CDT
Civil Twilight 5:20 AM CDT 9:24 PM CDT
Nautical Twilight 4:38 AM CDT 10:07 PM CDT
Astronomical Twilight 3:48 AM CDT 10:56 PM CDT
Moon 9:27 AM CDT (6/1) 11:46 PM CDT (6/1)
Length of Visible Light 16h 04m
Length of Day
14h 58m
Waxing Crescent, 14% of the Moon is Illuminated
Jun 1
Waxing Crescent
Jun 5
First Quarter
Jun 12
Full
Jun 19
Last Quarter
Jun 27
New

Hourly Weather History & Observations

Time (CDT) Temp. Heat Index Dew Point Humidity Pressure Visibility Wind Dir Wind Speed Gust Speed Precip Events Conditions
12:15 AM 76.5 °F - 62.6 °F 62% 29.93 in 10.0 mi South 12.7 mph - N/A   Clear
12:35 AM 76.1 °F - 62.6 °F 63% 29.93 in 10.0 mi South 11.5 mph - N/A   Clear
12:55 AM 75.6 °F - 62.8 °F 64% 29.92 in 10.0 mi South 13.8 mph - N/A   Clear
1:15 AM 74.8 °F - 62.8 °F 66% 29.92 in 10.0 mi South 11.5 mph - N/A   Clear
1:35 AM 74.3 °F - 63.0 °F 68% 29.91 in 10.0 mi SSE 11.5 mph 17.3 mph N/A   Clear
1:55 AM 73.9 °F - 63.5 °F 70% 29.91 in 10.0 mi South 12.7 mph - N/A   Clear
2:15 AM 73.8 °F - 63.5 °F 70% 29.91 in 10.0 mi South 15.0 mph - N/A   Clear
2:35 AM 73.4 °F - 63.5 °F 71% 29.90 in 10.0 mi South 15.0 mph 19.6 mph N/A   Scattered Clouds
2:55 AM 73.2 °F - 63.7 °F 72% 29.90 in 10.0 mi South 13.8 mph 18.4 mph N/A   Scattered Clouds
3:15 AM 73.0 °F - 63.7 °F 72% 29.90 in 10.0 mi South 10.4 mph - N/A   Mostly Cloudy
3:35 AM 72.5 °F - 63.7 °F 74% 29.90 in 10.0 mi South 10.4 mph - N/A   Scattered Clouds
3:55 AM 71.8 °F - 63.9 °F 76% 29.89 in 10.0 mi South 10.4 mph - N/A   Clear
4:15 AM 71.2 °F - 63.9 °F 77% 29.89 in 10.0 mi SSE 11.5 mph - N/A   Clear
4:35 AM 71.2 °F - 64.0 °F 78% 29.89 in 10.0 mi South 13.8 mph - N/A   Clear
4:55 AM 70.9 °F - 64.0 °F 79% 29.88 in 10.0 mi South 12.7 mph - N/A   Clear
5:15 AM 70.7 °F - 64.2 °F 80% 29.88 in 10.0 mi South 12.7 mph - N/A   Clear
5:35 AM 70.3 °F - 64.4 °F 81% 29.88 in 10.0 mi South 11.5 mph - N/A   Clear
6:15 AM 70.2 °F - 64.4 °F 82% 29.87 in 10.0 mi South 13.8 mph - N/A   Clear
6:35 AM 70.0 °F - 64.6 °F 83% 29.88 in 10.0 mi South 12.7 mph 17.3 mph N/A   Clear
6:55 AM 70.5 °F - 64.9 °F 82% 29.88 in 10.0 mi South 12.7 mph - N/A   Clear
7:15 AM 71.6 °F - 65.3 °F 80% 29.88 in 10.0 mi South 13.8 mph - N/A   Clear
7:35 AM 72.5 °F - 65.5 °F 79% 29.88 in 10.0 mi South 15.0 mph 18.4 mph N/A   Clear
8:15 AM 74.3 °F - 65.7 °F 74% 29.88 in 10.0 mi South 17.3 mph - N/A   Clear
8:35 AM 75.2 °F - 65.8 °F 73% 29.87 in 10.0 mi South 16.1 mph 25.3 mph N/A   Clear
8:55 AM 75.7 °F - 66.0 °F 72% 29.87 in 10.0 mi South 15.0 mph 20.7 mph N/A   Clear
9:15 AM 76.5 °F - 66.2 °F 70% 29.87 in 10.0 mi South 18.4 mph 23.0 mph N/A   Clear
9:35 AM 77.5 °F - 66.2 °F 68% 29.87 in 10.0 mi South 13.8 mph - N/A   Clear
9:55 AM 79.0 °F - 66.2 °F 65% 29.87 in 10.0 mi South 16.1 mph 21.9 mph N/A   Clear
10:15 AM 80.2 °F 82.3 °F 66.2 °F 62% 29.86 in 10.0 mi South 16.1 mph 20.7 mph N/A   Clear
10:35 AM 82.4 °F 84.4 °F 65.7 °F 57% 29.85 in 10.0 mi South 19.6 mph 25.3 mph N/A   Clear
11:15 AM 83.5 °F 85.3 °F 65.1 °F 54% 29.85 in 10.0 mi South 18.4 mph 26.5 mph N/A   Clear
11:35 AM 85.1 °F 86.6 °F 64.8 °F 50% 29.84 in 10.0 mi South 16.1 mph 26.5 mph N/A   Scattered Clouds
11:55 AM 86.4 °F 87.8 °F 64.6 °F 48% 29.84 in 10.0 mi South 19.6 mph 26.5 mph N/A   Mostly Cloudy
12:15 PM 86.0 °F 87.3 °F 64.2 °F 48% 29.83 in 10.0 mi SSE 17.3 mph 21.9 mph N/A   Mostly Cloudy
12:35 PM 85.6 °F 86.8 °F 63.9 °F 48% 29.83 in 10.0 mi South 20.7 mph 26.5 mph N/A   Mostly Cloudy
1:15 PM 86.2 °F 87.3 °F 63.7 °F 47% 29.81 in 10.0 mi South 23.0 mph 28.8 mph N/A   Mostly Cloudy
1:35 PM 87.3 °F 88.6 °F 63.9 °F 46% 29.80 in 10.0 mi South 19.6 mph 26.5 mph N/A   Mostly Cloudy
1:55 PM 88.2 °F 89.3 °F 63.7 °F 44% 29.79 in 10.0 mi South 20.7 mph 31.1 mph N/A   Mostly Cloudy
2:15 PM 88.2 °F 89.0 °F 63.3 °F 43% 29.77 in 10.0 mi South 26.5 mph 31.1 mph N/A   Mostly Cloudy
2:55 PM 85.3 °F 85.9 °F 62.6 °F 46% 29.75 in 10.0 mi South 20.7 mph 27.6 mph N/A   Scattered Clouds
3:15 PM 84.4 °F 85.2 °F 62.8 °F 48% 29.74 in 10.0 mi South 19.6 mph 23.0 mph N/A   Scattered Clouds
3:35 PM 84.0 °F 84.9 °F 63.0 °F 49% 29.74 in 10.0 mi South 16.1 mph - N/A   Scattered Clouds
3:55 PM 86.7 °F 87.8 °F 63.7 °F 46% 29.73 in 10.0 mi South 17.3 mph 20.7 mph N/A   Clear
4:15 PM 86.7 °F 87.5 °F 63.0 °F 45% 29.73 in 10.0 mi South 16.1 mph 27.6 mph N/A   Scattered Clouds
4:35 PM 85.1 °F 85.7 °F 62.4 °F 46% 29.71 in 10.0 mi South 19.6 mph 25.3 mph N/A   Mostly Cloudy
4:50 PM 81.0 °F 82.1 °F 62.2 °F 53% 29.78 in 5.0 mi NW 39.1 mph 54.1 mph 0.01 in Rain Rain
7:35 PM 64.4 °F - 61.9 °F 92% 29.79 in 10.0 mi ENE 6.9 mph - N/A Rain Light Rain
7:55 PM 64.0 °F - 61.7 °F 92% 29.80 in 10.0 mi East 3.5 mph - 0.02 in Rain Rain
8:15 PM 64.4 °F - 62.1 °F 92% 29.85 in 10.0 mi SSE 8.1 mph - 0.03 in Rain Rain
8:35 PM 64.4 °F - 62.1 °F 92% 29.86 in 7.0 mi SSE 5.8 mph - 0.08 in Rain Rain
8:55 PM 64.4 °F - 62.1 °F 92% 29.84 in 7.0 mi ESE 4.6 mph - 0.15 in Rain Rain
9:15 PM 64.0 °F - 62.1 °F 93% 29.83 in 10.0 mi ESE 12.7 mph - 0.05 in Rain , Thunderstorm Thunderstorms and Rain
9:35 PM 63.5 °F - 61.9 °F 94% 29.79 in 10.0 mi ESE 16.1 mph - 0.10 in Rain , Thunderstorm Rain
9:55 PM 63.5 °F - 61.9 °F 94% 29.76 in 10.0 mi ESE 15.0 mph 19.6 mph 0.13 in Rain Light Rain
10:15 PM 63.5 °F - 61.7 °F 94% 29.78 in 10.0 mi East 9.2 mph - N/A Thunderstorm Mostly Cloudy
10:55 PM 63.5 °F - 61.7 °F 94% 29.80 in 10.0 mi WSW 6.9 mph - N/A   Clear
11:15 PM 63.7 °F - 61.2 °F 91% 29.81 in 10.0 mi SW 8.1 mph - N/A   Clear
11:35 PM 63.7 °F - 61.2 °F 91% 29.81 in 10.0 mi SSW 8.1 mph - N/A   Clear
11:55 PM 63.5 °F - 60.8 °F 91% 29.81 in 10.0 mi SW 6.9 mph - N/A   Clear